| time (UTC) | temp F | wind direction | speed MPH | gust MPH | rain 1hr in | rain 24hr in | rain mn in | humidity % | barometer mb |
| 20260506061553 | 61 | 352 | 0.0 | 5.0 | 0.00 | 0.00 | 0.00 | 77 | 1009.4 |
| 20260506060107 | 61 | 0 | 1.0 | 5.0 | 0.00 | 0.00 | 0.00 | 76 | 1009.3 |
| 20260506044554 | 64 | 0 | 0.0 | 4.0 | 0.00 | 0.00 | 0.00 | 74 | 1009.4 |
| 20260506043056 | 65 | 0 | 0.0 | 9.0 | 0.00 | 0.00 | 0.00 | 74 | 1009.0 |
| 20260506041558 | 65 | 331 | 2.0 | 11.0 | 0.00 | 0.00 | 0.00 | 74 | 1009.2 |
| 20260506040055 | 66 | 345 | 3.0 | 14.0 | 0.00 | 0.00 | 0.00 | 72 | 1009.3 |
| 20260506034612 | 67 | 324 | 3.0 | 10.0 | 0.00 | 0.00 | 0.00 | 72 | 1009.0 |
| 20260506033055 | 67 | 0 | 1.0 | 10.0 | 0.00 | 0.00 | 0.00 | 71 | 1008.6 |
| 20260506031555 | 68 | 0 | 0.0 | 6.0 | 0.00 | 0.00 | 0.00 | 69 | 1008.2 |
| 20260506030054 | 68 | 0 | 0.0 | 6.0 | 0.00 | 0.00 | 0.00 | 69 | 1007.7 |
| 20260506024556 | 69 | 0 | 0.0 | 9.0 | 0.00 | 0.00 | 0.00 | 69 | 1007.6 |
| 20260506023101 | 69 | 0 | 0.0 | 5.0 | 0.00 | 0.00 | 0.00 | 68 | 1007.3 |
| 20260506021553 | 70 | 343 | 1.0 | 6.0 | 0.00 | 0.00 | 0.00 | 69 | 1007.3 |
| 20260506020054 | 71 | 0 | 2.0 | 11.0 | 0.00 | 0.00 | 0.00 | 68 | 1006.9 |
| 20260506014554 | 72 | 0 | 1.0 | 8.0 | 0.00 | 0.00 | 0.00 | 67 | 1006.5 |
| 20260506013106 | 72 | 0 | 0.0 | 8.0 | 0.00 | 0.00 | 0.00 | 67 | 1006.0 |
| 20260506011558 | 73 | 0 | 1.0 | 7.0 | 0.00 | 0.00 | 0.00 | 65 | 1005.7 |
| 20260506010108 | 74 | 0 | 0.0 | 6.0 | 0.00 | 0.00 | 0.00 | 65 | 1005.6 |
| 20260506004552 | 75 | 0 | 1.0 | 11.0 | 0.00 | 0.00 | 0.00 | 64 | 1005.4 |
| 20260506003056 | 76 | 309 | 0.0 | 6.0 | 0.00 | 0.00 | 0.00 | 61 | 1005.1 |
| 20260506001601 | 77 | 0 | 0.0 | 3.0 | 0.00 | 0.00 | 0.00 | 60 | 1005.2 |
| 20260506000056 | 78 | 0 | 0.0 | 11.0 | 0.00 | 0.00 | 0.00 | 59 | 1005.3 |
| 20260505234552 | 79 | 0 | 0.0 | 11.0 | 0.00 | 0.00 | 0.00 | 58 | 1004.8 |
| 20260505233104 | 80 | 319 | 3.0 | 10.0 | 0.00 | 0.00 | 0.00 | 58 | 1004.6 |
| 20260505231553 | 82 | 330 | 2.0 | 13.0 | 0.00 | 0.00 | 0.00 | 58 | 1004.4 |
| 20260505230057 | 85 | 319 | 1.0 | 11.0 | 0.00 | 0.00 | 0.00 | 52 | 1004.2 |
| 20260505224559 | 86 | 0 | 2.0 | 10.0 | 0.00 | 0.00 | 0.00 | 48 | 1004.2 |
| 20260505223055 | 87 | 327 | 2.0 | 10.0 | 0.00 | 0.00 | 0.00 | 46 | 1003.9 |
| 20260505221556 | 92 | 0 | 0.0 | 3.0 | 0.00 | 0.00 | 0.00 | 43 | 1003.8 |
| 20260505214633 | 91 | 269 | 0.0 | 5.0 | 0.00 | 0.00 | 0.00 | 45 | 1003.7 |
| 20260505213116 | 92 | 0 | 2.0 | 7.0 | 0.00 | 0.00 | 0.00 | 43 | 1003.7 |
| 20260505211556 | 92 | 0 | 0.0 | 9.0 | 0.00 | 0.00 | 0.00 | 42 | 1003.7 |
| 20260505210055 | 93 | 0 | 1.0 | 8.0 | 0.00 | 0.00 | 0.00 | 41 | 1004.0 |
| 20260505204556 | 93 | 0 | 0.0 | 7.0 | 0.00 | 0.00 | 0.00 | 45 | 1004.2 |
| 20260505203056 | 91 | 267 | 1.0 | 7.0 | 0.00 | 0.00 | 0.00 | 44 | 1004.3 |
| 20260505201559 | 90 | 266 | 4.0 | 11.0 | 0.00 | 0.00 | 0.00 | 48 | 1004.5 |
| 20260505200056 | 91 | 296 | 1.0 | 8.0 | 0.00 | 0.00 | 0.00 | 50 | 1004.5 |
| 20260505194553 | 90 | 240 | 2.0 | 10.0 | 0.00 | 0.00 | 0.00 | 49 | 1004.6 |
| 20260505193053 | 89 | 0 | 2.0 | 14.0 | 0.00 | 0.00 | 0.00 | 50 | 1004.7 |
| 20260505191605 | 88 | 278 | 3.0 | 12.0 | 0.00 | 0.00 | 0.00 | 51 | 1004.8 |
| 20260505184551 | 86 | 225 | 3.0 | 15.0 | 0.00 | 0.00 | 0.00 | 56 | 1004.8 |
| 20260505183114 | 86 | 292 | 1.0 | 11.0 | 0.00 | 0.00 | 0.00 | 61 | 1005.0 |
| 20260505181553 | 84 | 223 | 3.0 | 15.0 | 0.00 | 0.00 | 0.00 | 61 | 1005.2 |
| 20260505180057 | 84 | 242 | 3.0 | 14.0 | 0.00 | 0.00 | 0.00 | 65 | 1005.2 |
| 20260505174609 | 83 | 0 | 0.0 | 8.0 | 0.00 | 0.00 | 0.00 | 68 | 1005.2 |
| 20260505173054 | 82 | 0 | 4.0 | 14.0 | 0.00 | 0.00 | 0.00 | 69 | 1005.3 |
| 20260505171558 | 80 | 189 | 2.0 | 15.0 | 0.00 | 0.00 | 0.00 | 70 | 1005.3 |
| 20260505170058 | 80 | 0 | 2.0 | 15.0 | 0.00 | 0.00 | 0.00 | 71 | 1005.2 |
| 20260505164557 | 80 | 0 | 2.0 | 12.0 | 0.00 | 0.00 | 0.00 | 71 | 1005.3 |
| 20260505163053 | 79 | 215 | 6.0 | 16.0 | 0.00 | 0.00 | 0.00 | 71 | 1005.1 |
| 20260505161621 | 78 | 0 | 3.0 | 16.0 | 0.00 | 0.00 | 0.00 | 74 | 1004.8 |
| 20260505153053 | 75 | 233 | 2.0 | 13.0 | 0.00 | 0.00 | 0.00 | 78 | 1005.0 |
| 20260505151606 | 74 | 221 | 3.0 | 15.0 | 0.00 | 0.00 | 0.00 | 79 | 1005.0 |
| 20260505124555 | 69 | 209 | 4.0 | 15.0 | 0.00 | 0.00 | 0.00 | 87 | 1004.3 |
| 20260505123054 | 69 | 228 | 2.0 | 15.0 | 0.00 | 0.00 | 0.00 | 87 | 1004.1 |
| 20260505121553 | 69 | 0 | 2.0 | 14.0 | 0.00 | 0.00 | 0.00 | 86 | 1004.0 |
| 20260505120110 | 69 | 0 | 1.0 | 10.0 | 0.00 | 0.00 | 0.00 | 86 | 1004.0 |
| 20260505114553 | 69 | 134 | 0.0 | 11.0 | 0.00 | 0.00 | 0.00 | 87 | 1003.7 |
| 20260505113052 | 69 | 164 | 3.0 | 12.0 | 0.00 | 0.00 | 0.00 | 87 | 1003.8 |
| 20260505111552 | 69 | 204 | 3.0 | 14.0 | 0.00 | 0.00 | 0.00 | 87 | 1003.7 |
| 20260505101554 | 68 | 0 | 3.0 | 14.0 | 0.00 | 0.00 | 0.00 | 87 | 1003.6 |
| 20260505100100 | 68 | 0 | 0.0 | 12.0 | 0.00 | 0.00 | 0.00 | 87 | 1003.7 |
| 20260505094556 | 68 | 0 | 2.0 | 11.0 | 0.00 | 0.00 | 0.00 | 87 | 1003.7 |
| 20260505093053 | 68 | 129 | 1.0 | 14.0 | 0.00 | 0.00 | 0.00 | 87 | 1003.9 |
| 20260505091552 | 68 | 0 | 0.0 | 8.0 | 0.00 | 0.00 | 0.00 | 87 | 1004.0 |
| 20260505090053 | 68 | 209 | 0.0 | 12.0 | 0.00 | 0.00 | 0.00 | 87 | 1004.3 |
| 20260505084554 | 69 | 0 | 0.0 | 10.0 | 0.00 | 0.00 | 0.00 | 86 | 1004.3 |
| 20260505083054 | 69 | 0 | 1.0 | 16.0 | 0.00 | 0.00 | 0.00 | 85 | 1004.3 |
| 20260505081604 | 69 | 220 | 1.0 | 12.0 | 0.00 | 0.00 | 0.00 | 84 | 1004.3 |
| 20260505080053 | 70 | 225 | 0.0 | 12.0 | 0.00 | 0.00 | 0.00 | 83 | 1004.2 |
| 20260505074558 | 70 | 212 | 0.0 | 11.0 | 0.00 | 0.00 | 0.00 | 82 | 1004.3 |
| 20260505073110 | 70 | 0 | 3.0 | 15.0 | 0.00 | 0.00 | 0.00 | 81 | 1004.6 |
| 20260505071603 | 70 | 0 | 0.0 | 19.0 | 0.00 | 0.00 | 0.00 | 80 | 1004.8 |